Location: Guayaquil
(2.1667°S, 79.9000°W)
Time: 04:31:16
(UTC-05:00)

Starlink (leader) - Visible Passes

Search period start: 16 June 2019 00:00
Search period end: 26 June 2019 00:00
Orbit: 432 x 439 km, 53.0° (Epoch: 15 June)

Date Brightness Start Highest point End Pass type
(mag) Time Alt. Az. Time Alt. Az. Time Alt. Az.
22 Jun 5.5 20:05:19 10° N 20:06:27 18° N 20:06:27 18° N visible
23 Jun 4.9 19:23:54 10° N 19:26:22 18° NE 19:26:28 18° ENE visible
24 Jun 5.5 20:18:03 10° WNW 20:19:53 22° W 20:19:53 22° W visible
25 Jun 3.7 19:35:29 10° NW 19:38:53 54° SW 19:40:00 35° S visible
